[[{"header":{"parameterUnit":"m.s-1","parameterCategory":1,"la1":30.2991,"la2":30.254,"lo1":-89.0895,"lo2":-89.0444,"dx":0.0017,"dy":0.0017,"nx":28,"ny":28,"refTime":"2022-12-07T03:00:00:Z","depth":0,"parameterNumber":2,"parameterNumberName":"U-component_of_WINDS"},"data":[0,0,0,0,0,0,0,0,0,0,0,0,0,0,0,0,0,0,0,0,0,0,0,0,0,0,0,0,0,0,0,0,0,0,0,0,0,0,0,0,0,0,0,0,0,0,0,0,0,0,0,0,0,0,0,0,0,0,-0.9218,-0.9219,0,-0.9262,-0.9262,-0.9263,-0.9247,-0.9246,-0.9245,-0.9244,-0.9289,-0.9291,-0.9293,0,0,0,0,0,0,0,0,0,0,0,0,0,-0.9123,-0.9125,-0.9218,-0.9219,-0.9219,-0.9261,-0.9262,-0.9263,-0.9247,-0.9246,-0.9245,-0.9244,-0.9288,-0.929,-0.9293,0,0,0,0,0,0,0,0,0,0,0,0,0,-0.9165,-0.9126,-0.9218,-0.9217,-0.9217,-0.9261,-0.9262,-0.9263,-0.9247,-0.9246,-0.9245,-0.9243,-0.9287,-0.929,-0.9293,-0.9342,0,0,-0.9303,-0.9304,0,0,0,0,0,0,0,0,-0.9163,-0.9169,-0.9216,-0.9217,-0.9217,-0.9247,-0.9245,-0.9289,-0.9248,-0.9236,-0.9244,-0.9243,-0.9276,-0.928,-0.9291,-0.9344,-0.9346,-0.9303,-0.9305,-0.9306,-0.9307,0,0,0,0,0,0,0,-0.916,-0.9167,-0.9235,-0.9217,-0.9218,-0.9214,-0.9219,-0.9253,-0.9264,-0.9237,-0.9236,-0.9241,-0.9276,-0.9288,-0.9292,-0.9346,-0.9303,-0.9306,-0.9308,-0.9309,-0.9443,-0.9445,0,0,0,0,0,0,-0.9157,-0.9165,-0.9234,-0.9237,-0.9186,-0.9217,-0.9222,-0.9239,-0.9263,-0.9265,-0.9242,-0.924,-0.9284,-0.9289,-0.9294,-0.9354,-0.9306,-0.9309,-0.9311,-0.9441,-0.9443,-0.9445,0,0,0,0,0,0,-0.9155,-0.9163,-0.9232,-0.92,-0.9209,-0.922,-0.924,-0.9241,-0.9253,-0.9267,-0.9269,-0.9253,-0.9283,-0.9289,-0.933,-0.9355,-0.9311,-0.9313,-0.9439,-0.9442,-0.9444,-0.9473,0,0,0,0,0,0,-0.9152,-0.9163,-0.9181,-0.9201,-0.9211,-0.9268,-0.9241,-0.9243,-0.9259,-0.9256,-0.9278,-0.928,-0.9282,-0.9326,-0.9334,-0.9358,-0.9316,-0.9437,-0.9441,-0.9444,-0.947,-0.9476,-0.9481,0,0,0,0,0,-0.9149,-0.9186,-0.9182,-0.919,-0.9233,-0.9269,-0.9275,-0.9276,-0.926,-0.9279,-0.9289,-0.9279,-0.9351,-0.933,-0.9339,-0.9365,-0.9436,-0.944,-0.9443,-0.9467,-0.9475,-0.9481,0,0,0,0,0,0,-0.9168,-0.9189,-0.9184,-0.9229,-0.9247,-0.9266,-0.929,-0.9284,-0.9307,-0.9304,-0.9305,-0.9311,-0.9353,-0.9363,-0.9339,-0.9414,-0.9391,-0.9397,-0.9406,-0.9413,-0.9419,-0.9416,-0.9318,0,0,0,0,0,-0.9178,-0.9204,-0.9221,-0.9259,-0.9269,-0.9278,-0.9293,-0.9293,-0.9313,-0.932,-0.9333,-0.9352,-0.9379,-0.9397,-0.9422,-0.9471,-0.9476,-0.9493,-0.9499,-0.9504,-0.9509,-0.9538,-0.9546,-0.9458,-0.9458,-0.9458,0,0,-0.9197,-0.9212,-0.9229,-0.9264,-0.9278,-0.9307,-0.9285,-0.9315,-0.9337,-0.9325,-0.9365,-0.9375,-0.9397,-0.9442,-0.9463,-0.9452,-0.9535,-0.9509,-0.9512,-0.9515,-0.9542,-0.9551,-0.9558,-0.946,-0.946,-0.9459,0,0,-0.9248,-0.9261,-0.9295,-0.9311,-0.9333,-0.9339,-0.9347,-0.9368,-0.9374,-0.9414,-0.9407,-0.9433,-0.9479,-0.9495,-0.951,-0.9569,-0.9562,-0.9578,-0.9608,-0.9636,-0.9643,-0.9649,-0.9672,-0.968,-0.9583,-0.9583,-0.9583,0,-0.927,-0.9312,-0.9314,-0.9346,-0.9362,-0.9353,-0.9389,-0.9404,-0.9433,-0.9445,-0.9432,-0.9491,-0.9505,-0.9555,-0.957,-0.9582,-0.9592,-0.9575,-0.9642,-0.9648,-0.9654,-0.9676,-0.9684,-0.9584,-0.9584,-0.9584,-0.9584,0,-0.9339,-0.9368,-0.9393,-0.9423,-0.9442,-0.9475,-0.9483,-0.9502,-0.9501,-0.9509,-0.9551,-0.9568,-0.9598,-0.9609,-0.9608,-0.9661,-0.9653,-0.9641,-0.9618,-0.9664,-0.9685,-0.9693,-0.9587,-0.9586,-0.9586,-0.9585,0,0,-0.9401,-0.9433,-0.9442,-0.9456,-0.9481,-0.9505,-0.9539,-0.9568,-0.9585,-0.9607,-0.9636,-0.9676,-0.9666,-0.9682,-0.9683,-0.9708,-0.9756,-0.9693,-0.9693,-0.9705,-0.9817,-0.9827,-0.9836,-0.9752,-0.9753,-0.9754,-0.9816,0,-0.9455,-0.9515,-0.9518,-0.9572,-0.9601,-0.9594,-0.9624,-0.9643,-0.9652,-0.9678,-0.9687,-0.9717,-0.97,-0.971,-0.9734,-0.9745,-0.9779,-0.9741,-0.978,-0.9781,-0.9775,-0.9846,-0.9856,-0.9913,-0.9823,-0.9825,-0.9826,0,-0.9525,-0.955,-0.9607,-0.963,-0.9642,-0.9669,-0.9697,-0.9722,-0.9744,-0.9749,-0.9769,-0.9767,-0.9803,-0.9778,-0.9829,-0.9803,-0.9819,-0.9828,-0.983,-0.9834,-0.9807,-0.9854,-0.9931,-0.994,-0.9838,-0.9837,-0.9836,0,-0.9567,-0.9614,-0.9655,-0.9668,-0.9695,-0.9714,-0.9727,-0.9747,-0.9766,-0.9791,-0.9803,-0.9832,-0.9848,-0.9871,-0.9877,-0.9859,-0.9928,-0.9904,-0.9934,-0.9934,-0.9949,-0.9948,-1.0032,-0.9959,-0.9958,-0.9958,-0.9958,0,-0.9628,-0.9663,-0.9675,-0.97,-0.974,-0.9744,-0.9784,-0.9796,-0.9815,-0.9843,-0.9839,-0.9865,-0.9872,-0.99,-0.9905,-0.9947,-0.9954,-0.996,-0.9961,-0.9961,-0.996,-0.9972,-0.9969,-0.9961,-0.996,-0.996,-0.9959,0,-0.9681,-0.969,-0.9735,-0.9757,-0.9764,-0.9793,-0.9813,-0.9838,-0.9847,-0.9882,-0.9891,-0.9905,-0.9938,-0.9947,-0.9986,-0.999,-1.004,-1.0037,-1.0033,-1.0033,-1.0063,-1.0061,-1.0157,-1.0171,-1.0088,-1.0089,-1.009,0,-0.9719,-0.9747,-0.9773,-0.9792,-0.9805,-0.9835,-0.9854,-0.986,-0.988,-0.9909,-0.993,-0.9963,-0.999,-1.0044,-1.0058,-1.0088,-1.0087,-1.0119,-1.0091,-1.0091,-1.0089,-1.0088,-1.0091,-1.0124,-1.0125,-1.0125,-1.0126,0,-0.9786,-0.979,-0.9817,-0.9847,-0.987,-0.9894,-0.9917,-0.9932,-0.9941,-0.9965,-0.9999,-1.0019,-1.0061,-1.0094,-1.0125,-1.0139,-1.0135,-1.0135,-1.0143,-1.0144,-1.0141,-1.0144,-1.0048,-1.0132,-1.0132,-1.0131,-1.0131,-1.0131,-0.9834,-0.9859,-0.9882,-0.9914,-0.9932,-0.9953,-0.9978,-0.9991,-1.0019,-1.0054,-1.0055,-1.0093,-1.0117,-1.0159,-1.0174,-1.0205,-1.0195,-1.0207,-1.0211,-1.0214,-1.0218,-1.0136,-1.021,-1.021,-1.021,-1.021,-1.021,0,-0.9903,-0.9918,-0.9946,-0.9979,-1.0004,-0.9998,-1.0023,-1.0045,-1.0078,-1.01,-1.0127,-1.0168,-1.02,-1.0218,-1.0251,-1.0272,-1.0271,-1.028,-1.0279,-1.0283,-1.0223,-1.0213,-1.0281,-1.0281,-1.0281,-1.0281,-1.0281,-1.0281,-0.9941,-0.9984,-0.999,-1.0042,-1.0057,-1.0094,-1.0109,-1.013,-1.0148,-1.0193,-1.0221,-1.0232,-1.0253,-1.0288,-1.0318,-1.0323,-1.0336,-1.0347,-1.035,-1.0294,-1.0287,-1.028,-1.027,-1.0349,-1.0349,-1.0407,-1.0408,-1.0408]},{"header":{"parameterUnit":"m.s-1","parameterCategory":1,"la1":30.2991,"la2":30.254,"lo1":-89.0895,"lo2":-89.0444,"dx":0.0017,"dy":0.0017,"nx":28,"ny":28,"refTime":"2022-12-07T03:00:00:Z","depth":0,"parameterNumber":3,"parameterNumberName":"V-component_of_WINDS"},"data":[0,0,0,0,0,0,0,0,0,0,0,0,0,0,0,0,0,0,0,0,0,0,0,0,0,0,0,0,0,0,0,0,0,0,0,0,0,0,0,0,0,0,0,0,0,0,0,0,0,0,0,0,0,0,0,0,0,0,1.7564,1.7564,0,1.7549,1.7549,1.7549,1.7572,1.7573,1.7573,1.7574,1.7554,1.7553,1.7552,0,0,0,0,0,0,0,0,0,0,0,0,0,1.7607,1.7606,1.7564,1.7564,1.7564,1.7549,1.7549,1.7549,1.7572,1.7573,1.7574,1.7575,1.7555,1.7553,1.7552,0,0,0,0,0,0,0,0,0,0,0,0,0,1.759,1.7606,1.7564,1.7573,1.7574,1.7549,1.7549,1.7549,1.7572,1.7573,1.7574,1.7575,1.7555,1.7553,1.7552,1.7516,0,0,1.7546,1.7545,0,0,0,0,0,0,0,0,1.7591,1.7588,1.7572,1.7573,1.7573,1.7564,1.7557,1.7538,1.7571,1.7572,1.7574,1.7576,1.7556,1.7554,1.7549,1.7515,1.7514,1.7546,1.7544,1.7544,1.7543,0,0,0,0,0,0,0,1.7592,1.7589,1.7558,1.7572,1.7573,1.7577,1.7576,1.7554,1.7557,1.7572,1.7574,1.7572,1.7557,1.7551,1.7548,1.7514,1.7546,1.7544,1.7543,1.7542,1.745,1.7449,0,0,0,0,0,0,1.7593,1.759,1.7558,1.7558,1.7585,1.7575,1.7574,1.7566,1.7558,1.7558,1.7571,1.7573,1.7553,1.7551,1.7548,1.7506,1.7544,1.7542,1.7541,1.7451,1.745,1.7448,0,0,0,0,0,0,1.7594,1.759,1.7559,1.7574,1.7571,1.7573,1.7564,1.7565,1.7559,1.7557,1.7557,1.7564,1.7554,1.7551,1.7524,1.7506,1.7541,1.7539,1.7453,1.7451,1.7449,1.7421,0,0,0,0,0,0,1.7595,1.759,1.7577,1.7574,1.757,1.7537,1.7562,1.7563,1.7556,1.7558,1.7551,1.7551,1.7555,1.7527,1.7522,1.7504,1.7538,1.7455,1.7452,1.745,1.7424,1.7419,1.7414,0,0,0,0,0,1.7596,1.7569,1.7576,1.7572,1.7554,1.7536,1.7533,1.754,1.7554,1.7541,1.754,1.7551,1.7508,1.7524,1.7519,1.7499,1.7456,1.7453,1.745,1.7426,1.742,1.7415,0,0,0,0,0,0,1.7568,1.7568,1.7577,1.7548,1.7542,1.7539,1.7523,1.7533,1.7521,1.7524,1.7531,1.7529,1.7501,1.7497,1.7515,1.7465,1.7484,1.748,1.7468,1.7462,1.7457,1.7458,1.7536,0,0,0,0,0,1.7559,1.7545,1.7545,1.752,1.7516,1.752,1.7512,1.7518,1.7511,1.7508,1.7505,1.7497,1.7482,1.7472,1.7458,1.7424,1.7422,1.7408,1.7403,1.7399,1.7395,1.7378,1.7371,1.7439,1.7439,1.7439,0,0,1.7538,1.7537,1.7528,1.7514,1.751,1.7494,1.7518,1.75,1.7488,1.7505,1.7481,1.7478,1.7469,1.7439,1.7426,1.7435,1.7377,1.7395,1.7392,1.7391,1.7374,1.7367,1.7362,1.7437,1.7437,1.7438,0,0,1.7494,1.7492,1.7471,1.7467,1.7461,1.7464,1.7459,1.7455,1.7455,1.7431,1.7443,1.7429,1.7402,1.7396,1.7389,1.7344,1.7353,1.7339,1.7313,1.7296,1.729,1.7286,1.727,1.7264,1.7335,1.7335,1.7335,0,1.747,1.7448,1.7458,1.744,1.7434,1.745,1.7428,1.7423,1.7412,1.7407,1.7418,1.7387,1.7382,1.735,1.734,1.7333,1.7327,1.7339,1.7291,1.7286,1.7282,1.7266,1.726,1.7333,1.7333,1.7334,1.7334,0,1.7419,1.7403,1.7387,1.7378,1.737,1.7349,1.7355,1.7345,1.7352,1.7353,1.7328,1.7323,1.7309,1.7302,1.7307,1.7272,1.7278,1.729,1.731,1.7274,1.7259,1.7253,1.7331,1.7331,1.7332,1.7332,0,0,1.7355,1.7354,1.7347,1.7344,1.7339,1.7327,1.7308,1.7295,1.7287,1.7279,1.7262,1.724,1.7252,1.7244,1.7249,1.7233,1.7198,1.7247,1.7247,1.7238,1.7158,1.715,1.7143,1.7205,1.7204,1.7203,1.7159,0,1.7312,1.728,1.7289,1.7257,1.7243,1.7259,1.7242,1.7236,1.7237,1.7224,1.7224,1.7209,1.7225,1.7221,1.7206,1.7206,1.7182,1.7209,1.7188,1.7187,1.719,1.7135,1.7125,1.7085,1.7154,1.7153,1.7152,0,1.7257,1.7249,1.7216,1.7214,1.7209,1.7194,1.7183,1.7171,1.7165,1.7167,1.7159,1.7167,1.7147,1.7168,1.714,1.7157,1.715,1.7148,1.7146,1.7145,1.7167,1.7132,1.7072,1.7066,1.7143,1.7144,1.7145,0,1.7214,1.7195,1.7173,1.717,1.7167,1.7156,1.7154,1.715,1.7142,1.7133,1.7128,1.7115,1.7108,1.7098,1.7103,1.7117,1.7073,1.7094,1.7074,1.7073,1.7063,1.7064,1.7001,1.7058,1.7058,1.7058,1.7059,0,1.7165,1.7144,1.7154,1.7141,1.7118,1.7127,1.7104,1.7104,1.71,1.7086,1.7098,1.7084,1.7091,1.7077,1.708,1.7056,1.7053,1.7053,1.7054,1.7052,1.7052,1.7047,1.705,1.7057,1.7057,1.7058,1.7058,0,1.7113,1.712,1.7097,1.7097,1.7097,1.708,1.7079,1.7066,1.7069,1.7051,1.7047,1.705,1.7034,1.7038,1.702,1.7023,1.6993,1.6997,1.6995,1.6997,1.6976,1.6978,1.6907,1.6899,1.6961,1.6961,1.696,0,1.7081,1.7066,1.7065,1.7058,1.7056,1.7043,1.7036,1.7044,1.7036,1.7029,1.7016,1.7003,1.6992,1.6967,1.6966,1.6953,1.6957,1.6934,1.6955,1.6954,1.6957,1.6958,1.6956,1.6929,1.6928,1.6928,1.6927,0,1.7024,1.7028,1.7018,1.7009,1.7001,1.6994,1.6988,1.6981,1.6989,1.6979,1.6964,1.6956,1.694,1.6926,1.6914,1.691,1.692,1.6921,1.6915,1.6913,1.6912,1.6913,1.6984,1.6922,1.6923,1.6923,1.6923,1.6923,1.6981,1.6968,1.6966,1.6955,1.6952,1.6946,1.6934,1.6936,1.6925,1.6913,1.6919,1.6902,1.6896,1.6882,1.6877,1.6863,1.6872,1.6864,1.6862,1.686,1.6858,1.6915,1.6861,1.6861,1.6862,1.6862,1.6862,0,1.6924,1.6924,1.6914,1.6906,1.6897,1.6909,1.6903,1.6894,1.688,1.6875,1.6865,1.6848,1.6835,1.6834,1.6822,1.6811,1.6815,1.6807,1.6808,1.6807,1.685,1.6857,1.6804,1.6804,1.6804,1.6804,1.6804,1.6804,1.6894,1.6873,1.6877,1.6855,1.6855,1.684,1.6836,1.6831,1.6827,1.6808,1.6798,1.6799,1.6795,1.6782,1.677,1.677,1.6765,1.6756,1.6757,1.6798,1.6804,1.6809,1.6815,1.6754,1.6754,1.6715,1.6714,1.6714]}]]